Hourly Data Report for April 28, 2018

KUGAARUK CLIMATE
NUNAVUT
Current Station Operator: ECCC - MSC

68°32'15.060" N
89°47'47.020" W
15.80 m
2303094
71407
NBB

Download Data

Hourly Data (April 2018)
Hourly Data Report for April 28, 2018
TIME
LST
Temp Definition
°C
Dew Point Definition
°C
Rel Hum Definition
%
Precip. Amount Definition
mm

Wind Dir Definition
10's deg

Wind Spd Definition
km/h
Visibility Definition
km
Stn Press Definition
kPa
Hmdx Definition


Wind Chill Definition


Weather Definition


00:00 -18.7 -21.5 78 0.0 23 21   100.29   -29 LegendNANA
01:00 -18.3 -21.2 78 0.0 23 21   100.25   -29 LegendNANA
02:00 -18.0 -20.9 78 0.0 23 18   100.20   -27 LegendNANA
03:00 -17.7 -20.6 78 0.0 23 17   100.15   -27 LegendNANA
04:00 -17.6 -20.5 78 0.0 24 10   100.10   -24 LegendNANA
05:00 -17.5 -20.7 76 0.0 23 15   100.06   -26 LegendNANA
06:00 -16.6 -19.8 76 0.0 23 17   100.01   -25 LegendNANA
07:00 -16.0 -20.0 71 0.0 22 18   99.95   -25 LegendNANA
08:00 -15.3 -19.6 70 0.0 22 17   99.92   -24 LegendNANA
09:00 -15.0 -19.8 67 0.0 22 17   99.87   -23 LegendNANA
10:00 -14.2 -19.2 66 0.0 24 16   99.85   -22 LegendNANA
11:00 -13.2 -18.6 64 0.0 23 10   99.85   -19 LegendNANA
12:00 -12.1 -17.4 65 0.0 22 17   99.84   -20 LegendNANA
13:00 -12.2 -16.8 68 0.0 22 16   99.81   -20 LegendNANA
14:00 -11.9 -16.9 67 0.0 22 14   99.81   -19 LegendNANA
15:00 -11.7 -16.8 66 0.0 21 13   99.79   -18 LegendNANA
16:00 -11.6 -15.7 71 0.0 22 15   99.77   -19 LegendNANA
17:00 -11.7 -14.6 79 0.0 24 11   99.77   -18 LegendNANA
18:00 -11.3 -14.1 80 0.0 22 9   99.77   -16 LegendNANA
19:00 -11.7 -14.0 83 0.2 21 18   99.76   -20 LegendNANA
20:00 -12.7 -14.6 86 0.0 25 22   99.81   -22 LegendNANA
21:00 -14.3 -16.4 84 0.0 26 24   99.86   -24 LegendNANA
22:00 -16.1 -18.6 81 0.0 27 22   99.91   -26 LegendNANA
23:00 -17.0 -19.6 81 0.0 27 21   99.99   -27 LegendNANA

Notes on Data Quality.

Legend

  • E = Estimated
  • M = Missing
  • NA = Not Available*
  • [empty] = Indicates an unobserved value
Date modified: